| time (UTC) | temp C | wind direction | speed KPH | gust KPH | rain 1hr cm | rain 24hr cm | rain mn cm | humidity % | barometer mb |
| 20260507084541 | 13 | 74 | 0.0 | 0.0 | 0.00 | 0.71 | 0.00 | 80 | 1009.8 |
| 20260507083021 | 12 | 296 | 0.0 | 0.0 | 0.00 | 0.71 | 0.00 | 82 | 1009.9 |
| 20260507081512 | 12 | 296 | 0.0 | 0.0 | 0.00 | 0.71 | 0.00 | 83 | 1009.9 |
| 20260507080049 | 12 | 13 | 0.0 | 0.0 | 0.00 | 0.71 | 0.00 | 85 | 1009.9 |
| 20260507074525 | 12 | 107 | 0.0 | 0.0 | 0.00 | 0.91 | 0.00 | 88 | 1009.9 |
| 20260507073042 | 12 | 107 | 0.0 | 0.0 | 0.00 | 0.91 | 0.00 | 88 | 1009.8 |
| 20260507071604 | 12 | 90 | 0.0 | 0.0 | 0.00 | 0.91 | 0.00 | 88 | 1009.7 |
| 20260507070054 | 12 | 75 | 0.0 | 0.0 | 0.00 | 0.91 | 0.00 | 91 | 1009.7 |
| 20260507064603 | 11 | 104 | 0.0 | 0.0 | 0.00 | 1.12 | 0.00 | 93 | 1009.7 |
| 20260507063057 | 11 | 124 | 0.0 | 0.0 | 0.00 | 1.12 | 0.00 | 94 | 1009.6 |
| 20260507061551 | 11 | 160 | 0.0 | 0.0 | 0.00 | 1.12 | 0.00 | 96 | 1009.6 |
| 20260507060015 | 11 | 96 | 0.0 | 0.0 | 0.00 | 1.12 | 0.00 | 96 | 1009.5 |
| 20260507054609 | 10 | 312 | 0.0 | 0.0 | 0.00 | 1.19 | 0.00 | 96 | 1009.6 |
| 20260507053054 | 10 | 312 | 0.0 | 0.0 | 0.00 | 1.19 | 0.00 | 96 | 1009.4 |
| 20260507051549 | 10 | 312 | 0.0 | 0.0 | 0.00 | 1.19 | 0.00 | 96 | 1009.2 |
| 20260507050043 | 10 | 312 | 0.0 | 0.0 | 0.00 | 1.19 | 0.00 | 96 | 1009.2 |
| 20260507044555 | 10 | 312 | 0.0 | 0.0 | 0.00 | 1.19 | 0.00 | 96 | 1009.0 |
| 20260507043103 | 10 | 312 | 0.0 | 0.0 | 0.00 | 1.19 | 0.00 | 96 | 1008.8 |
| 20260507041554 | 10 | 312 | 0.0 | 0.0 | 0.00 | 1.19 | 0.00 | 96 | 1008.7 |
| 20260507040059 | 10 | 312 | 0.0 | 0.0 | 0.00 | 1.19 | 0.00 | 96 | 1008.6 |
| 20260507034607 | 10 | 312 | 0.0 | 0.0 | 0.00 | 1.19 | 0.00 | 96 | 1008.5 |
| 20260507033042 | 10 | 312 | 0.0 | 0.0 | 0.00 | 1.19 | 0.00 | 96 | 1008.5 |
| 20260507031528 | 10 | 313 | 0.0 | 0.0 | 0.00 | 1.19 | 0.00 | 96 | 1008.3 |
| 20260507030010 | 10 | 312 | 0.0 | 0.0 | 0.00 | 1.19 | 0.00 | 96 | 1008.3 |
| 20260507024503 | 10 | 312 | 0.0 | 0.0 | 0.00 | 1.19 | 0.00 | 96 | 1008.3 |
| 20260507023021 | 10 | 312 | 0.0 | 0.0 | 0.00 | 1.19 | 0.00 | 96 | 1008.4 |
| 20260507021558 | 10 | 312 | 0.0 | 0.0 | 0.00 | 1.19 | 0.00 | 96 | 1008.5 |
| 20260507020046 | 10 | 312 | 0.0 | 0.0 | 0.00 | 1.19 | 0.00 | 96 | 1008.5 |
| 20260507014606 | 10 | 312 | 0.0 | 0.0 | 0.00 | 1.19 | 0.00 | 96 | 1008.4 |
| 20260507011543 | 10 | 312 | 0.0 | 0.0 | 0.00 | 1.19 | 0.00 | 96 | 1008.2 |
| 20260507010029 | 10 | 312 | 0.0 | 0.0 | 0.00 | 1.19 | 0.00 | 96 | 1008.3 |
| 20260507004552 | 10 | 312 | 0.0 | 0.0 | 0.00 | 1.19 | 0.00 | 96 | 1008.3 |
| 20260507003047 | 10 | 312 | 0.0 | 0.0 | 0.00 | 1.19 | 0.00 | 96 | 1008.2 |
| 20260507001606 | 10 | 312 | 0.0 | 0.0 | 0.00 | 1.19 | 0.00 | 96 | 1008.3 |
| 20260507000058 | 10 | 312 | 0.0 | 0.0 | 0.00 | 1.19 | 0.00 | 96 | 1008.3 |
| 20260506234552 | 10 | 312 | 0.0 | 0.0 | 0.00 | 1.19 | 0.00 | 96 | 1008.3 |
| 20260506233048 | 10 | 333 | 0.0 | 0.0 | 0.00 | 1.19 | 0.00 | 96 | 1008.3 |
| 20260506231547 | 10 | 333 | 0.0 | 0.0 | 0.00 | 1.19 | 0.00 | 96 | 1008.2 |
| 20260506230052 | 10 | 333 | 0.0 | 0.0 | 0.00 | 1.19 | 0.00 | 96 | 1008.2 |
| 20260506224559 | 10 | 333 | 0.0 | 0.0 | 0.00 | 1.19 | 0.00 | 95 | 1008.2 |
| 20260506223100 | 10 | 333 | 0.0 | 0.0 | 0.00 | 1.19 | 0.00 | 95 | 1008.2 |
| 20260506221542 | 10 | 333 | 0.0 | 0.0 | 0.00 | 1.19 | 0.00 | 95 | 1008.2 |
| 20260506220029 | 10 | 333 | 0.0 | 0.0 | 0.00 | 1.19 | 0.00 | 96 | 1008.0 |
| 20260506214518 | 11 | 333 | 0.0 | 0.0 | 0.00 | 1.19 | 1.19 | 96 | 1007.9 |
| 20260506213100 | 11 | 333 | 0.0 | 0.0 | 0.00 | 1.19 | 1.19 | 96 | 1008.0 |
| 20260506211557 | 11 | 333 | 0.0 | 0.0 | 0.00 | 1.19 | 1.19 | 95 | 1008.1 |
| 20260506210046 | 11 | 333 | 0.0 | 0.0 | 0.00 | 1.19 | 1.19 | 95 | 1007.9 |
| 20260506204559 | 11 | 311 | 0.0 | 0.0 | 0.00 | 1.19 | 1.19 | 96 | 1007.9 |
| 20260506203041 | 11 | 213 | 0.0 | 0.0 | 0.00 | 1.19 | 1.19 | 96 | 1007.8 |
| 20260506201544 | 11 | 213 | 0.0 | 0.0 | 0.00 | 1.19 | 1.19 | 95 | 1007.7 |
| 20260506200134 | 11 | 213 | 0.0 | 0.0 | 0.00 | 1.19 | 1.19 | 95 | 1007.8 |
| 20260506194547 | 11 | 213 | 0.0 | 0.0 | 0.00 | 1.19 | 1.19 | 95 | 1007.7 |
| 20260506193042 | 11 | 213 | 0.0 | 0.0 | 0.00 | 1.19 | 1.19 | 95 | 1007.4 |
| 20260506191554 | 11 | 213 | 0.0 | 0.0 | 0.00 | 1.19 | 1.19 | 95 | 1007.2 |
| 20260506190045 | 11 | 213 | 0.0 | 0.0 | 0.00 | 1.19 | 1.19 | 95 | 1007.3 |
| 20260506184557 | 11 | 213 | 0.0 | 0.0 | 0.00 | 1.27 | 1.19 | 95 | 1007.1 |
| 20260506183054 | 11 | 213 | 0.0 | 0.0 | 0.00 | 1.27 | 1.19 | 94 | 1007.0 |
| 20260506181548 | 11 | 213 | 0.0 | 0.0 | 0.00 | 1.27 | 1.19 | 94 | 1006.9 |
| 20260506180105 | 12 | 213 | 0.0 | 0.0 | 0.00 | 1.27 | 1.19 | 94 | 1006.9 |
| 20260506174556 | 12 | 213 | 0.0 | 0.0 | 0.00 | 1.30 | 1.19 | 95 | 1006.7 |
| 20260506173057 | 12 | 213 | 0.0 | 0.0 | 0.00 | 1.30 | 1.19 | 95 | 1006.6 |
| 20260506171550 | 12 | 213 | 0.0 | 0.0 | 0.00 | 1.30 | 1.19 | 95 | 1006.5 |
| 20260506170059 | 12 | 136 | 0.0 | 0.0 | 0.00 | 1.30 | 1.19 | 95 | 1006.5 |
| 20260506164548 | 12 | 136 | 0.0 | 0.0 | 0.03 | 1.32 | 1.19 | 95 | 1006.3 |
| 20260506163031 | 12 | 136 | 0.0 | 0.0 | 0.03 | 1.32 | 1.19 | 95 | 1006.4 |
| 20260506161529 | 12 | 132 | 0.0 | 0.0 | 0.03 | 1.32 | 1.19 | 95 | 1006.5 |
| 20260506160109 | 12 | 132 | 0.0 | 0.0 | 0.03 | 1.32 | 1.19 | 95 | 1006.7 |
| 20260506154548 | 12 | 132 | 0.0 | 0.0 | 0.00 | 1.30 | 1.17 | 95 | 1006.4 |
| 20260506153056 | 12 | 127 | 0.0 | 0.0 | 0.03 | 1.30 | 1.17 | 95 | 1006.4 |
| 20260506151527 | 11 | 128 | 0.0 | 0.0 | 0.03 | 1.30 | 1.17 | 95 | 1006.5 |
| 20260506150044 | 12 | 128 | 0.0 | 0.0 | 0.03 | 1.30 | 1.17 | 95 | 1006.7 |
| 20260506144557 | 12 | 128 | 0.0 | 0.0 | 0.03 | 1.32 | 1.17 | 95 | 1006.7 |
| 20260506143051 | 12 | 128 | 0.0 | 0.0 | 0.03 | 1.30 | 1.17 | 95 | 1006.4 |
| 20260506141544 | 11 | 128 | 0.0 | 0.0 | 0.13 | 1.30 | 1.17 | 95 | 1006.5 |
| 20260506140100 | 11 | 128 | 0.0 | 0.0 | 0.20 | 1.30 | 1.17 | 95 | 1006.5 |
| 20260506134653 | 11 | 29 | 0.0 | 0.0 | 0.30 | 1.35 | 1.17 | 95 | 1006.7 |
| 20260506133046 | 11 | 14 | 0.0 | 0.0 | 0.41 | 1.32 | 1.14 | 95 | 1006.9 |
| 20260506131604 | 11 | 146 | 0.0 | 0.0 | 0.33 | 1.22 | 1.04 | 94 | 1007.4 |
| 20260506130054 | 11 | 146 | 0.0 | 0.0 | 0.33 | 1.14 | 0.97 | 94 | 1007.2 |
| 20260506124548 | 11 | 146 | 0.0 | 0.0 | 0.23 | 1.02 | 0.84 | 93 | 1007.2 |
| 20260506123046 | 11 | 146 | 0.0 | 0.0 | 0.15 | 0.91 | 0.71 | 93 | 1007.1 |
| 20260506121606 | 12 | 146 | 0.0 | 0.0 | 0.10 | 0.89 | 0.71 | 93 | 1007.1 |
| 20260506120049 | 12 | 146 | 0.0 | 0.0 | 0.05 | 0.81 | 0.64 | 93 | 1007.1 |
| 20260506114551 | 12 | 167 | 0.0 | 0.0 | 0.03 | 0.91 | 0.61 | 92 | 1007.4 |
| 20260506113043 | 12 | 113 | 0.0 | 0.0 | 0.00 | 0.89 | 0.61 | 91 | 1007.4 |
| 20260506111534 | 12 | 113 | 0.0 | 0.0 | 0.00 | 0.89 | 0.61 | 90 | 1007.5 |
| 20260506110017 | 12 | 101 | 0.0 | 0.0 | 0.00 | 0.89 | 0.61 | 91 | 1007.7 |
| 20260506104504 | 12 | 159 | 0.0 | 0.0 | 0.00 | 1.07 | 0.61 | 91 | 1007.8 |
| 20260506103012 | 12 | 96 | 0.0 | 0.0 | 0.00 | 1.07 | 0.61 | 90 | 1008.0 |
| 20260506101558 | 12 | 96 | 0.0 | 0.0 | 0.00 | 1.07 | 0.61 | 92 | 1008.0 |
| 20260506100050 | 12 | 96 | 0.0 | 0.0 | 0.00 | 1.07 | 0.61 | 93 | 1008.1 |
| 20260506094501 | 11 | 96 | 0.0 | 0.0 | 0.03 | 1.09 | 0.61 | 95 | 1007.8 |
| 20260506093055 | 11 | 96 | 0.0 | 0.0 | 0.05 | 1.09 | 0.61 | 96 | 1008.1 |
| 20260506091544 | 11 | 94 | 0.0 | 0.0 | 0.08 | 1.09 | 0.61 | 96 | 1008.0 |
| 20260506090058 | 11 | 116 | 0.0 | 0.0 | 0.10 | 1.09 | 0.61 | 96 | 1008.0 |